TIME,DELAY(SENSOR),PRES,T(CTD),SAL,OXYGEN,RAWTEMP,T(OPTODE),TCPHASE,TURBIDITY,TURBIDITY_GAIN,FLUOR,BETA,CDOM,CSC,CHECK
1352288593,8893,1021.6300048828125000,7.3786997795104980,35.1038017272949200,207.1903991699218800,647.5507202148438000,7.3620800971984860,37.8052787780761700,16,3,50,90,64,15604,38873
1352292296,8893,743.9099731445312000,13.1857995986938480,35.6991996765136700,176.2756958007812500,465.6156005859375000,13.1934900283813480,36.6983604431152340,15,3,50,86,60,15608,37938
1352292466,8892,732.9199829101562000,13.5130996704101560,35.7485008239746100,179.7727050781250000,455.5002136230469000,13.5099601745605470,36.3030700683593750,15,3,50,82,60,15606,6247
1352292602,8893,720.9099731445312000,13.7505998611450200,35.7854003906250000,182.1360015869140600,447.3559875488281000,13.7643003463745120,36.0209007263183600,15,3,50,82,60,15606,8725
1352292705,8893,710.4199829101562000,13.9399003982543950,35.8167991638183600,184.2574005126953000,441.0490112304687500,13.9609899520874020,35.7847404479980500,16,3,50,82,60,15608,13498
1352292827,8893,698.5399780273438000,14.3804998397827150,35.8838996887207000,189.0093994140625000,427.1846008300781000,14.3925800323486330,35.2694396972656250,16,3,50,82,58,15604,2026
1352292960,8893,687.1799926757812000,14.7222003936767580,35.9466018676757800,200.6257934570312500,416.3080139160156000,14.7304201126098630,34.3997497558593750,16,3,50,84,58,15604,47384
1352293087,8893,676.3599853515625000,14.8914003372192380,35.9728012084960940,201.3444976806640600,410.3550109863281000,14.9150695800781250,34.2690010070800800,16,3,50,83,58,15603,55749
1352293214,8893,665.4199829101562000,15.1661996841430660,36.0186004638671900,196.6902008056640600,402.0426025390625000,15.1726198196411130,34.4214515686035160,16,3,50,84,58,15606,18414
1352293341,8892,654.4199829101562000,15.3240003585815430,36.0452995300293000,198.1215972900390600,396.7514038085937500,15.3363895416259770,34.2584190368652340,15,3,50,82,58,15604,57182
1352293468,8893,643.0599975585938000,15.4874000549316400,36.0741004943847660,203.7751007080078000,391.5622863769531000,15.4968700408935550,33.8525505065918000,15,3,50,83,58,15602,33796
1352293595,8892,631.8200073242188000,15.6721000671386720,36.1072998046875000,204.0601959228515600,385.7484130859375000,15.6765298843383790,33.7517318725585940,16,3,50,84,58,15604,23375
1352293710,8895,621.6900024414062000,15.8411998748779300,36.1394004821777340,204.2368011474609400,380.1599121093750000,15.8491001129150390,33.6606407165527340,15,3,50,82,56,15604,44457
1352293837,8893,610.6799926757812000,16.0226001739501950,36.1736984252929700,206.0236968994140600,374.3349914550781000,16.0288200378417970,33.4755210876464840,16,3,50,84,58,15602,47603
1352293964,8893,599.7800292968750000,16.2479000091552730,36.2140998840332000,210.3370971679687500,366.9700927734375000,16.2558708190917970,33.1302909851074200,15,3,50,82,56,15600,41882
1352294103,8894,587.9199829101562000,16.4020996093750000,36.2452011108398440,213.4342041015625000,361.4374084472656000,16.4263000488281250,32.8831901550293000,15,3,50,84,56,15602,50133
1352294230,8893,577.6400146484375000,16.5741004943847660,36.2762985229492200,215.8948059082031200,356.3304138183594000,16.5835094451904300,32.6797599792480500,16,3,50,84,56,15602,45431
1352294386,8893,563.9500122070312000,16.7329998016357420,36.3056983947753900,218.6735992431640600,350.9916076660156000,16.7477703094482420,32.4584007263183600,15,3,50,84,56,15602,38994
1352294501,8892,552.7000122070312000,16.8885002136230470,36.3302993774414060,222.6999053955078000,345.9482116699219000,16.9028491973876950,32.1806182861328100,15,3,50,84,55,15600,52630
1352294616,8893,542.0399780273438000,17.0436000823974600,36.3601989746093750,223.4239044189453000,340.6494140625000000,17.0656890869140620,32.0703506469726560,15,3,50,82,54,15600,46431
1352294731,8893,531.7299804687500000,17.2040996551513670,36.3977012634277340,226.0787048339843800,335.9507141113281000,17.2100200653076170,31.8717994689941400,16,3,50,84,54,15600,9975
1352294858,8892,520.4400024414062000,17.3199996948242200,36.4189987182617200,227.5525970458984400,332.0826110839844000,17.3287792205810550,31.7456893920898440,15,3,50,84,54,15600,39706
1352294985,8892,509.1000061035156000,17.3929004669189450,36.4347991943359400,228.5001983642578000,329.5466918945312500,17.4066200256347660,31.6638107299804700,16,3,50,82,56,15598,54495
1352295100,8893,498.6300048828125000,17.4552993774414060,36.4422988891601560,228.6737976074218800,327.6101074218750000,17.4660491943359380,31.6291503906250000,16,3,48,82,54,15600,340
1352295227,8894,486.6900024414062500,17.5160999298095700,36.4519004821777340,229.0803070068359400,325.5215148925781000,17.5301399230957030,31.5808906555175780,16,3,49,83,54,15598,22637
1352295342,8892,475.6700134277344000,17.5771999359130860,36.4627990722656250,229.6020965576172000,323.4773864746094000,17.5928497314453120,31.5275001525878900,16,3,50,83,54,15596,49496
1352295491,8894,461.1000061035156000,17.7101993560791000,36.4884986877441400,231.3572998046875000,319.1387939453125000,17.7259101867675780,31.3834209442138670,16,3,48,80,54,15596,31840
1352295607,8894,449.6700134277344000,17.7779006958007800,36.5018005371093750,232.8551025390625000,317.0726928710937500,17.7892608642578120,31.2833309173584000,16,3,48,81,54,15596,37246
1352295710,8894,439.3200073242187500,17.8546009063720700,36.5161018371582000,233.5659942626953000,314.7228088378906000,17.8612995147705080,31.2175598144531250,11,3,48,81,55,15597,26521
1352295844,8894,426.4700012207031000,17.8955993652343750,36.5201988220214840,233.9714050292968800,313.3474121093750000,17.9034595489501950,31.1798591613769530,16,3,48,80,53,15596,15685
1352295989,8891,415.7200012207031000,17.9321002960205080,36.5261993408203100,234.2171936035156200,312.1405029296875000,17.9404506683349600,31.1518096923828120,16,3,48,84,54,15598,35282
1352296132,8891,404.5000000000000000,17.9946002960205080,36.5345001220703100,234.2572021484375000,309.9974975585937500,18.0061206817626950,31.1211891174316400,15,3,48,82,54,15596,23036
1352296211,8893,397.0000000000000000,18.0387001037597660,36.5402984619140600,233.9387969970703000,308.5310974121094000,18.0510501861572270,31.1167697906494140,16,3,48,83,54,15595,37377
1352296276,8892,390.9700012207031000,18.0958003997802730,36.5490989685058600,233.6257934570312500,306.8218994140625000,18.1034202575683600,31.1089706420898440,15,3,50,84,54,15596,25657
1352296343,8892,384.8800048828125000,18.1184005737304700,36.5523986816406250,233.0538024902343800,305.6236877441406000,18.1401195526123050,31.1200599670410160,16,3,50,84,53,15596,40772
1352296408,8892,379.0599975585937500,18.1476001739501950,36.5555992126464840,232.7906951904297000,305.0487976074219000,18.1577301025390620,31.1253795623779300,16,3,50,84,53,15596,41075
1352296475,8892,373.0899963378906000,18.1655998229980470,36.5578994750976560,232.5061950683593800,304.2932128906250000,18.1808795928955080,31.1287193298339840,22,3,50,84,54,15594,12261
1352296540,8893,367.2600097656250000,18.2010002136230470,36.5597991943359400,232.1428985595703000,303.3008117675781000,18.2112693786621100,31.1329994201660160,15,3,50,82,54,15595,15612
1352296607,8892,361.3599853515625000,18.2283000946044920,36.5623016357421900,231.8623962402343800,302.4426879882812500,18.2375507354736330,31.1352195739746100,16,3,50,84,54,15595,47735
1352296672,8891,355.6600036621094000,18.2492008209228500,36.5626983642578100,231.8849029541015600,301.7616882324219000,18.2584095001220700,31.1247501373291000,16,3,50,85,53,15594,9929
1352296751,8893,348.9100036621094000,18.2772998809814450,36.5619010925293000,231.8955993652343800,300.6931152343750000,18.2911396026611330,31.1100292205810550,16,3,50,83,54,15598,35996
1352296816,8893,343.4700012207031000,18.3092002868652340,36.5625991821289060,232.0016937255859400,299.7030944824219000,18.3214492797851560,31.0918197631835940,15,3,50,84,54,15598,63904
1352296895,8894,336.9400024414062500,18.3637008666992200,36.5722007751464840,231.2595062255859400,298.0816955566406000,18.3710899353027340,31.1060905456542970,15,3,50,82,54,15598,60132
1352296960,8894,331.6799926757812500,18.3966999053955080,36.5714988708496100,231.8394012451172000,296.8252868652344000,18.4095592498779300,31.0612907409667970,16,3,48,83,54,15598,15011
1352297039,8894,325.5000000000000000,18.3880004882812500,36.5596008300781250,232.2200012207031200,296.8930969238281000,18.4074897766113280,31.0441207885742200,16,3,48,80,54,15597,13332
1352297116,8892,319.6199951171875000,18.4141998291015620,36.5536994934082000,233.9309997558593800,295.9118957519531000,18.4375190734863280,30.9491195678710940,15,3,48,80,52,15598,15924
1352297214,8893,311.8200073242187500,18.4657001495361330,36.5460014343261700,237.8022003173828000,294.6394042968750000,18.4764804840087900,30.7504997253417970,16,3,48,82,52,15597,49384
1352297302,8893,303.8299865722656000,18.5669002532959000,36.5617980957031250,235.8016052246093800,291.6911926269531000,18.5667190551757800,30.8050193786621100,16,3,50,84,53,15597,10402
1352297369,8893,297.3500061035156000,18.5583992004394530,36.5518989562988300,235.9779968261718800,291.6004028320312500,18.5694904327392580,30.7955207824707030,16,3,50,84,52,15596,47699
1352297434,8893,291.0899963378906000,18.5743007659912100,36.5371017456054700,237.1992950439453000,290.6795043945312500,18.5976791381835940,30.7263298034667970,15,3,49,84,54,15594,43193
1352297501,8893,284.7000122070312500,18.6564998626709000,36.5452003479003900,237.3936004638672000,288.1416015625000000,18.6753406524658200,30.6837196350097660,15,3,50,84,54,15594,48478
1352297566,8893,278.4599914550781000,18.7444992065429700,36.5497016906738300,236.8941040039062500,285.2926025390625000,18.7625198364257800,30.6697902679443360,16,3,50,84,54,15594,61125
1352297633,8893,272.0400085449219000,18.9125995635986330,36.5726013183593750,235.0977020263672000,279.9737854003906000,18.9252204895019530,30.6840190887451170,16,3,50,84,54,15596,16149
1352297698,8893,265.9400024414062500,18.9776992797851560,36.5732994079589840,234.9664001464843800,277.8684997558594000,18.9896106719970700,30.6625595092773440,16,3,50,84,54,15594,16145
1352297765,8893,259.7099914550781000,18.9918003082275400,36.5474014282226560,238.2577972412109400,276.9534912109375000,19.0175991058349600,30.4970893859863280,15,3,50,84,53,15592,62147
1352297830,8893,253.6900024414062500,19.1166000366210940,36.5672988891601560,240.3202056884765600,273.3978881835937500,19.1263294219970700,30.3559303283691400,15,3,50,82,52,15595,45154
1352301499,8894,102.6100006103515600,22.5443000793457030,36.6002998352050800,252.5758056640625000,161.7395019531250000,22.5389709472656250,28.4206504821777340,67,3,87,94,51,15520,8969
